Regional Weather Roundup
Issued by NWS Pendleton, OR

Home | Current Version | Previous Version | Text Only | Print | Product List | Glossary On
Versions: 1 2 3 4 5 6 7 8 9 10 11 12 13 14 15 16 17 18 19 20 21 22 23 24 25 26 27 28 29 30 31 32 33 34 35 36 37 38 39 40 41 42 43 44 45 46 47 48 49 50
000
ASUS46 KPDT 300725
RWRPDT
PENDLETON REGIONAL WEATHER ROUNDUP
NATIONAL WEATHER SERVICE PENDLETON OREGON
1200 AM PDT TUE MAY 30 2017

NOTE: FAIR INDICATES FEW OR NO CLOUDS BELOW 12,000 FEET WITH NO
SIGNIFICANT WEATHER AND/OR OBSTRUCTIONS TO VISIBILITY.

# INDICATES UNOFFICIAL STATION AND DATA

WAZ520-300810-
EAST SLOPES OF WASHINGTON CASCADES

CITY            SKY/WX      TMP DP  RH  WIND    PRES   REMARKS
#BULLFROG       N/A         60  52  75  CALM    N/A
#CLE ELUM HS    N/A         64  51  63  CALM    29.89R
#CLE ELUM LAKE  N/A         68  48  49  CALM    29.89S
#EASTON DOT     N/A         59  52  78  CALM    N/A
#ELK HTS DOT    N/A         63  62  97  CALM    N/A
#GLENWOOD       N/A         61  53  75  CALM    29.83F
#NELSON 3SW     N/A         59  48  67  CALM    30.02S
#NILE           N/A         56  49  77  CALM    29.16R
#TEANAWAY 4NE   N/A         61  52  72  CALM    N/A
#TROUT LAKE 1NE N/A         61  52  72  W1      29.85R
#TROUT LAKE 1E  N/A         60  52  75  CALM    29.97R
$$

WAZ521-300810-
SIMCOE HIGHLANDS

CITY            SKY/WX      TMP DP  RH  WIND    PRES   REMARKS
#BICKLETON HS   N/A         68  49  51  SW3     29.95F
#CENTERVILLE 1SWN/A         69  50  51  W3      29.78R
#GOLDENDALE 1NE N/A         74  32  21  S2      N/A
#GOLDENDALE 4W  N/A         70  17  13  CALM    29.96R
#GOODNOE HILLS  N/A         78  46  32  SE2     N/A
#LYLE 6NE       N/A         62  56  81  S3      29.83R
#PITT 4SE       N/A         59  53  80  CALM    29.86R
$$

WAZ026-300810-
KITTITAS VALLEY

CITY            SKY/WX      TMP DP  RH  WIND    PRES   REMARKS
ELLENSBURG AP   PTCLDY      64  50  60  N7      29.92R
YTC-OPS AREA    CLEAR       73  37  27  W10     30.00F
#ELLENSBURG CWU N/A         67  51  56  CALM    29.78S
#ELLENSBURG 3NE N/A         60  52  75  NE1     28.00S
#KITTITAS 3S    N/A         56  52  86  CALM    29.84R
#MANASTASH RDG  N/A         73  72  97  S3      N/A
#ROCKY CYN DOT  N/A         63  50  62  NW1     N/A
#RYEGRASS DOT   N/A         74  45  35  S10     N/A
#THORP 6N       N/A         70  46  42  CALM    29.85S
$$

WAZ027-300810-
YAKIMA VALLEY

CITY            SKY/WX      TMP DP  RH  WIND    PRES   REMARKS
SUNNYSIDE AP    PTCLDY      65  50  58  N5      29.87S
YAKIMA AIRPORT  MOCLDY      67  54  63  NW9     29.88F
YAKIMA-VAGABOND CLEAR       69  45  42  SW5     29.88S
#DONALD 2NE     N/A         78  17  10  NW3     28.72F
#GRANDVIEW      N/A         68  49  51  NW1     29.85S
#MABTON         N/A         68  50  53  E1      29.86S
#MOXEE 2E       N/A         71  N/A N/A NE6     29.89F
#NACHES 2SW     N/A         65  51  60  W1      29.93S
#OUTLOOK DOT    N/A         73  46  38  CALM    29.84S
#PARKER DOT     N/A         74  46  37  S6      29.86F
#TERRACE HTS    N/A         72  48  43  CALM    29.79F
#TOPPENISH      N/A         73  50  44  CALM    29.74F
#I82 S UMTANUM RN/A         68  44  42  N7      N/A
#UNION GAP DOT  N/A         69  51  53  CALM    29.90R
#WEST VALLEY    N/A         68  53  59  CALM    29.81R
#W YAKIMA       N/A         72  51  48  W1      29.82F
#WILEY CITY 3W  N/A         66  45  47  CALM    29.87S
#ZILLAH DOT     N/A         70  50  49  SE1     N/A
$$

WAZ028-300810-
LOWER COLUMBIA BASIN...WASHINGTON

CITY            SKY/WX      TMP DP  RH  WIND    PRES   REMARKS
HANFORD         MOCLEAR     75  41  29  W9      29.83S
PASCO           CLEAR       66  56  70  NE6     29.84S
PROSSER AWOS    N/A         63  54  72  CALM    29.90S
RICHLAND AWOS   CLEAR       66  53  63  CALM    29.85R
#BENTON CITY    N/A         74  47  38  CALM    29.73S
#CONNELL 5N     N/A         61  50  67  NE2     29.82S
#CONNELL 5NW    N/A         65  51  60  E1      29.77S
#ELTOPIA 6NW    N/A         74  51  44  CALM    28.83F
#KAHLOTUS       N/A         70  50  49  CALM    29.82R
#KENNEWICK 3S   N/A         75  50  41  CALM    29.82S
#PATERSON       N/A         72  47  41  N2      29.82R
#PROSSER DOT    N/A         65  51  60  CALM    29.87F
#SAGEMOOR 2W    N/A         69  53  57  W1      29.68R
#TOUCHET 2S     N/A         57  54  90  CALM    29.80R
#WEST PASCO     N/A         72  55  55  CALM    29.80S
$$

WAZ029-300810-
FOOTHILLS OF THE BLUES...WASHINGTON

CITY            SKY/WX      TMP DP  RH  WIND    PRES   REMARKS
WALLA WALLA AP  CLEAR       69  45  42  E8      29.87S
#CLYDE 6NW      N/A         63  48  58  CALM    29.80S
#DAYTON SCHOOL  N/A         64  43  46  N5      29.93S
#DELANEY DOT    N/A         57  48  72  CALM    29.89S
#LOWDEN 2SE     N/A         61  54  78  CALM    29.82R
#PLEASANT VIEW 1N/A         76  44  32  CALM    29.84S
#PRESCOTT       N/A         63  52  67  CALM    29.80S
#WHITMAN COLLEGEN/A         71  51  49  CALM    29.85S
#WAITSBURG 6SSE N/A         60  46  60  SE3     29.84S
#WAITSBURG 8N   N/A         68  N/A N/A NW6     29.91S
#WALLA WALLA 5E N/A         65  46  50  NE7     N/A
#WALLA WALLA U  N/A         69  53  57  CALM    29.81R
#WHITMAN MISSIONN/A         60  54  81  CALM    29.84R
$$

WAZ030-300810-
BLUE MOUNTAINS...WASHINGTON

CITY            SKY/WX      TMP DP  RH  WIND    PRES   REMARKS
#DIXIE 5SE      N/A         74  33  22  N9      29.90F
$$

ORZ009-041-WAZ024-300810-
COLUMBIA RIVER GORGE

CITY            SKY/WX      TMP DP  RH  WIND    PRES   REMARKS
THE DALLES AP   CLOUDY      71  57  61  NW21G29 29.86R
#ARLINGTON AIRPON/A         76  49  39  CALM    29.84S
#CELILO DOT     N/A         75  52  45  S6      N/A
#LYLE           N/A         68  57  68  W5G24   29.88S
#MARYHILL       N/A         74  48  40  N10     29.73R
#MURDOCK        N/A         70  57  63  NW15G25 29.82R
#RUFUS DOT      N/A         79  49  35  S7      N/A
#SMITHVILLE     N/A         71  56  59  NW20G26 29.78R

$$

ORZ510-300810-
NORTH CENTRAL OREGON

CITY            SKY/WX      TMP DP  RH  WIND    PRES   REMARKS
#ANTELOPE       N/A         67  49  52  NE2     29.67F
#CHENOWITH 1W   N/A         51  35  54  NW14    N/A
#COW CYN RST AREN/A         68  43  40  NE8     N/A
#DUFUR          N/A         64  55  73  NW2     29.81S
#DUFUR 9E       N/A         72  48  43  SE1     29.86R
#GRASS VALLEY 1SN/A         67  48  50  E2      29.96F
#KENT DOT       N/A         69  42  37  SE3     N/A
#MAUPIN SCHOOL  N/A         67  56  68  CALM    29.94F
#MORO SCHOOL    N/A         74  51  44  SE5     30.00S
#SHANIKO 5WSW   N/A         65  40  40  N21     N/A
#SHANIKO 4NW    N/A         64  44  48  E16     30.01F
#TYGH VALLEY 2NEN/A         64  56  75  CALM    29.83F
#WAPANITIA AIRPON/A         63  53  70  CALM    29.85F
#WASCO DOT      N/A         75  46  36  S6      N/A
#WASCO 5NE      N/A         77  49  37  N2      29.81F
$$

ORZ511-300810-
CENTRAL OREGON

CITY            SKY/WX      TMP DP  RH  WIND    PRES   REMARKS
BEND AIRPORT    MOCLDY      64  45  50  CALM    29.96F
MADRAS AIRPORT  PTCLDY      59  46  62  SE6     29.98F
PRINEVILLE AP   MOCLDY      63  46  54  S9      30.00F
REDMOND AIRPORT MOCLDY      67  43  42  W8      29.99F
#ASHWOOD SCHOOL N/A         64  50  60  CALM    29.93F
#BEND 1SW       N/A         61  46  58  CALM    N/A
#BEND-AWBREY    N/A         64  46  52  CALM    29.83F
#BEND-KIM LN    N/A         63  46  54  W3      29.77F
#CULVER         N/A         62  50  65  CALM    29.77F
#CULVER 8W      N/A         67  48  50  W1      29.98F
#MADRAS 4S      N/A         59  16  18  CALM    N/A
#POWELL BUTTE   N/A         65  46  50  SW6     29.97F
#PRINEVILLE     N/A         67  47  49  N1      29.88F
#PRINEVILLE 3N  N/A         63  49  60  S1      29.82F
#WARM SPRINGS   N/A         63  51  65  CALM    29.73F

$$


ORZ509-300810-
EAST SLOPES OF OREGON CASCADES

CITY            SKY/WX      TMP DP  RH  WIND    PRES   REMARKS
SISTERS AWOS    N/A         63  46  54  CALM    29.98F
#CAMP SHERMAN   N/A         57  45  64  CALM    29.90S
#LA PINE 4SW    N/A         61  39  44  SW2     30.03S
#LA PINE 4NW    N/A         59  44  57  CALM    29.88F
#LAVA BUTTE DOT N/A         60  42  51  CALM    N/A
#SISTERS 3N     N/A         57  42  57  CALM    30.00F
#SUNRIVER       N/A         61  46  58  CALM    29.84F
#TUMALO 3W      N/A         66  44  45  NW5     29.70F
#WANOGA BUTTE D N/A         57  38  49  NE3     N/A

$$

ORZ044-300810-
LOWER COLUMBIA BASIN...OREGON

CITY            SKY/WX      TMP DP  RH  WIND    PRES   REMARKS
HERMISTON       PTCLDY      71  50  47  S9      29.86R
#BOARDMAN SCHOOLN/A         71  51  49  CALM    29.83S
#BOARDMAN 8SW   N/A         74  52  46  S5      29.83S
#ECHO 8SW       N/A         68  50  53  SW3     29.88S
#I-84 EX 198 DOTN/A         72  52  49  NE5     N/A
#IONE SCHOOL    N/A         74  47  38  CALM    29.85S
#UMATILLA       N/A         70  49  47  CALM    29.76R
$$

ORZ507-300810-
NORTHERN FOOTHILLS OF THE BLUES

CITY            SKY/WX      TMP DP  RH  WIND    PRES   REMARKS
PENDLETON AIRPT PTCLDY      62  48  60  NW9     29.90R
#ADAMS 3WNW     N/A         56  47  72  W3      29.84R
#ATHENA         N/A         60  46  60  CALM    29.86R
#CAYUSE         N/A         69  50  51  W6      29.83R
#HELIX SCHOOL   N/A         64  46  52  CALM    29.84R
#HELIX 3N       N/A         67  46  47  SW15    29.90R
#HOLDMAN 5SE    N/A         65  49  56  CALM    29.91R
#HOLDMAN 6E     N/A         67  48  50  CALM    29.65R
#M-F FERNDALE   N/A         62  47  58  CALM    29.83S
#M-F GROVE ELEM N/A         70  40  34  W3      29.85R
#M-FREEWATER 5SEN/A         70  45  41  NE1     29.88R
#PENDLETON DNTN N/A         64  46  52  CALM    29.89R
#PDT AQUATIC CTRN/A         64  44  48  CALM    29.90R
#PDT SUNRIDGE   N/A         61  51  70  CALM    29.92R
#PENDLETON 7NW  N/A         64  50  60  CALM    32.30S
#PILOT ROCK 1S  N/A         72  43  35  S8      29.95R
#PILOT ROCK     N/A         69  47  45  CALM    29.95R
#TUTUILLA       N/A         57  49  75  CALM    29.88R
#UMAPINE 2E     N/A         64  51  63  CALM    29.82R
#WESTON SCHOOL  N/A         74  37  26  CALM    29.84S

$$

ORZ508-300810-
SOUTHERN FOOTHILLS OF THE BLUES

CITY            SKY/WX      TMP DP  RH  WIND    PRES   REMARKS
LEXINGTON       PTCLDY      75  43  32  N7      29.94F
#AJAX           N/A         77  37  24  S7      30.07F
#CONDON 5W      N/A         71  39  31  NE7     29.97F
#FOSSIL SCHOOL  N/A         72  48  43  E3      29.91F
#HEPPNER EOC    N/A         80  46  30  E2      29.77F
#HEPPNER 4NE    N/A         72  45  38  SW3     29.84F
#LEXINGTON 2SE  N/A         76  46  34  CALM    29.88F
#MIKKALO        N/A         80  40  24  SE14G24 30.02F
#OLEX 4N        N/A         82  46  28  S8      29.87S
#RUGGS 5NE      N/A         73  42  33  CALM    30.17S
#RUGGS 2SW      N/A         71  45  39  SW3     29.85F

$$

ORZ502-503-300810-
BLUE MOUNTAINS

CITY            SKY/WX      TMP DP  RH  WIND    PRES   REMARKS
MEACHAM         CLEAR       52  42  69  CALM    30.04S
#BATTLE MTN DOT N/A         65  40  40  NW1     N/A
#GRANITE        N/A         44  34  68  CALM    29.85S
#GREENHORN 9SW  N/A         49  40  71  CALM    30.06R
#HARDMAN 10S    N/A         65  44  46  NW1     29.94F
#LADD CYN SMT   N/A         52  46  80  CALM    N/A
#LADD CREEK ODOTN/A         58  35  42  SW2     N/A
#LONG CREEK HS  N/A         55  36  49  CALM    N/A
#N POWDER DOT   N/A         56  48  74  NW2     N/A
#PIKES PEAK     N/A         78  30  17  CALM    27.99S
#SUMMERVILLE 5NWN/A         58  50  75  NW2     30.03S
#TOLLGATE       N/A         56  38  51  CALM    29.96S
#TROY SCHOOL    N/A         57  51  80  CALM    29.75R
#UKIAH          N/A         53  48  83  CALM    29.82R
#WESTON 4E      N/A         70  40  34  E7      29.79S
$$

ORZ505-300810-
JOHN DAY BASIN

CITY            SKY/WX      TMP DP  RH  WIND    PRES   REMARKS
JOHN DAY        CLEAR       63  33  32  CALM    30.03R
#ANTELOPE 9ESE  N/A         71  49  46  CALM    N/A
#DAYVILLE SCHOOLN/A         76  41  28  W1      29.93S
#MITCHELL       N/A         63  51  65  CALM    30.16S
#MITCHELL 8NW   N/A         68  45  44  S3      29.82F
#MONUMENT HS    N/A         70  44  39  E2      29.91S
#MT. VERNON 5SE N/A         65  31  28  CALM    29.99S
#SPRAY SCHOOL   N/A         72  N/A N/A CALM    N/A
$$

ORZ506-300810-
OCHOCO AND JOHN DAY HIGHLANDS

CITY            SKY/WX      TMP DP  RH  WIND    PRES   REMARKS
#HORSE RIDGE DO N/A         63  43  48  SW7     N/A
#PAULINA ODOT   N/A         67  37  33  N2      N/A
#PINE MTN OBS   N/A         54  42  64  CALM    N/A
#PRAIRIE CITY   N/A         54  40  59  CALM    30.17R
#SENECA         N/A         50  N/A N/A CALM    N/A
#SENECA 9NW     N/A         45  36  70  CALM    29.89R
$$

ORZ049-300810-
GRANDE RONDE VALLEY

CITY            SKY/WX      TMP DP  RH  WIND    PRES   REMARKS
LA GRANDE       CLEAR       61  45  56  CALM    29.98R
#COVE           N/A         62  49  62  NE2     30.02R
#COVE SCHOOL    N/A         58  46  64  CALM    30.01R
#COVE 6NW       N/A         60  48  64  CALM    29.86S
#ELGIN 3N       N/A         57  42  57  CALM    29.97R
#ELGIN 1E       N/A         59  48  67  CALM    N/A
#IMBLER SCHOOL  N/A         65  43  45  N3      29.95R
#ISLAND CITY 4N N/A         59  54  83  CALM    29.97S
#LA GRANDE-LEFFEN/A         65  47  52  NE3     29.99R
#UNION 1S       N/A         65  43  45  E6      29.86R
$$

ORZ050-300810-
WALLOWA COUNTY

CITY            SKY/WX      TMP DP  RH  WIND    PRES   REMARKS
JOSEPH AIRPORT  CLEAR       55  41  59  S7      30.08S
#ENTERPRISE HS  N/A         56  46  69  CALM    29.78R
#IMNAHA SCHOOL  N/A         66  49  54  E3      29.97R
#IMNAHA 10S     N/A         62  45  54  SW5     30.01R
#JOSEPH         N/A         60  41  49  S2      30.06S
#JOSEPH 3N      N/A         50  40  68  CALM    30.09S
#LOSTINE        N/A         61  43  51  SE2     29.70R
#LOSTINE 3SE    N/A         58  45  62  S3      30.08R
#MT HOWARD 8000 N/A         53  35  50  CALM    30.31S
#PROMISE 1S     N/A         58  48  69  S1      29.96S
#WALLOWA LAKE   N/A         60  39  46  SE3     30.12S
#WALLOWA SCHOOL N/A         56  47  72  CALM    29.98S



$$



USA.gov is the U.S. government's official web portal to all federal, state and local government web resources and services.